TimeMDT,TemperatureF,Dew PointF,Humidity,Sea Level PressureIn,VisibilityMPH,Wind Direction,Wind SpeedMPH,Gust SpeedMPH,PrecipitationIn,Events,Conditions,WindDirDegrees,DateUTC
12:53 AM,24.1,19.0,81,30.46,10.0,Calm,Calm,-,N/A,,Clear,0,2011-11-03 06:53:00
1:53 AM,21.9,18.0,85,30.45,10.0,NE,4.6,-,N/A,,Clear,40,2011-11-03 07:53:00
2:53 AM,24.1,19.0,81,30.43,10.0,Calm,Calm,-,N/A,,Clear,0,2011-11-03 08:53:00
3:53 AM,24.1,18.0,77,30.41,10.0,NNW,3.5,-,N/A,,Clear,340,2011-11-03 09:53:00
4:53 AM,19.0,17.1,92,30.44,10.0,South,4.6,-,N/A,,Clear,180,2011-11-03 10:53:00
5:53 AM,19.0,16.0,88,30.46,10.0,NE,3.5,-,N/A,,Clear,50,2011-11-03 11:53:00
7:53 AM,21.9,18.0,85,30.47,10.0,NE,5.8,-,N/A,,Clear,40,2011-11-03 13:53:00
8:53 AM,26.1,21.0,81,30.50,10.0,Calm,Calm,-,N/A,,Clear,0,2011-11-03 14:53:00
9:53 AM,33.1,23.0,66,30.47,10.0,Calm,Calm,-,N/A,,Clear,0,2011-11-03 15:53:00
10:53 AM,41.0,21.0,45,30.40,10.0,ESE,6.9,-,N/A,,Clear,110,2011-11-03 16:53:00
11:53 AM,43.0,18.0,37,30.38,10.0,Variable,4.6,-,N/A,,Clear,0,2011-11-03 17:53:00
12:53 PM,46.0,18.0,33,30.35,10.0,NE,6.9,-,N/A,,Clear,50,2011-11-03 18:53:00
1:53 PM,46.0,15.1,29,30.31,10.0,Variable,4.6,-,N/A,,Clear,0,2011-11-03 19:53:00
2:53 PM,50.0,15.1,25,30.25,10.0,East,8.1,-,N/A,,Clear,90,2011-11-03 20:53:00
6:53 PM,37.9,17.1,43,30.27,10.0,NNE,6.9,-,N/A,,Clear,30,2011-11-04 00:53:00
7:53 PM,35.1,17.1,48,30.26,10.0,NE,3.5,-,N/A,,Clear,50,2011-11-04 01:53:00
8:53 PM,35.1,17.1,48,30.24,10.0,NNE,3.5,-,N/A,,Clear,20,2011-11-04 02:53:00
9:53 PM,36.0,18.0,48,30.20,10.0,Calm,Calm,-,N/A,,Clear,0,2011-11-04 03:53:00
10:53 PM,32.0,19.0,59,30.17,10.0,North,3.5,-,N/A,,Clear,10,2011-11-04 04:53:00
11:53 PM,26.1,18.0,71,30.19,10.0,ENE,3.5,-,N/A,,Clear,60,2011-11-04 05:53:00